COSMOS 2491 DEB *, 45128

Orbit data source: Space-Track

COSMOS 2491 DEB *, 45128 is space debris in LEO originally from a launch on Wed, 25 Dec 2013 UTC launched from the Plesetsk Missile And Space Complex (PKMTR). Debris objects in space refer to the collection of defunct objects orbiting the Earth. Examples of debris include non-operational satellites, rocket bodies, and fragments generated from explosions, collisions, or faulty payload assembly.

Loading next visibility...
Identifier
45128, 2013-076AA
Orbit
LEO
Country
Flag of CISCIS
Related business
Manufacturer
TsNIIKhM
Mission
Spacecraft
Bus & Motor
Unknown
Mass
Unknown
Launch date (UTC)
2013-12-25 (12 years ago)
Launch vehicle
Unknown
Launch site
Plesetsk Missile And Space Complex (PKMTR)
Object type
Payload
Rocket body
Debris
Shape & HBR
Unknown shape, 0.1 m
Radar Cross Section
Small (<0.1 m²)

Expand to show TLE details & history
Last TLE update: 4 days ago

TLE from 4 days ago
0 COSMOS 2491 DEB *
1 45128U 13076AA  25283.66909569  .00007972  00000-0  25403-2 0  9998
2 45128  81.2091 255.7567 0019293 275.0116  84.8869 14.39629661 26093
Epoch: 2025-10-10T16:03Z
TLE epoch observation values (Epoch: 2025-10-10T16:03:29.867Z)
Latitude
Longitude
-4.62936°
Altitude
761.46 km
Speed
7.474 km/s
True Right ascension
17h 03m 01s
True Declination
0° 00' 00"
Sunlit
Object was in daylight at epoch
Visualization orbit readout
Latitude
Unknown
Longitude
Unknown
Altitude
Unknown
Speed
Unknown
Apparent Right ascension
Unknown
Apparent Declination
Unknown
Sunlit
N/A
Visualization observer readout
Local Sidereal Time
03:43:08
Azimuth
Unknown
Elevation
Unknown
Doppler factor
Unknown
Orbital elements
Apogee altitude
770.624 km
Perigee altitude
743.093 km
Semi-major axis
7,134.996 km
Eccentricity
0.00193
Inclination
81.2091°
RAAN
255.7567°
Arg. of periapsis
275.0116°
True anomaly
85.10715°
Mean anomaly
84.8869°
Eccentric anomaly
84.99702°
Mean motion
3.60124 °/min
Orbital period
99.97 mins
BSTAR
0.0025403
Loading maneuver chart data...
Computing Atmospheric mass density...
Loading historical data...
Loading historical data...
Loading historical data...
Loading historical data...
Loading historical data...
Loading historical data...
Loading historical data...

Documentation

Showing up to 5 results
|